Theta_e
324 323 321 320 320 319 318 316 315 313 313 312 310 310 310 310 310 310 310 309 308 308 308 308 310 311 306 299 301 313 321 319 314 307 302 301 300 297 292 294 295 294 295 298 299 300 299
323 322 321 319 320 319 317 316 314 313 312 312 311 310 309 309 309 308 307 308 307 307 308 309 310 309 302 293 304 311 310 307 308 307 305 306 302 302 297 295 293 296 297 297 298 298 298
324 322 321 319 319 318 316 314 313 313 312 311 311 310 308 307 307 307 307 307 307 307 308 309 311 308 301 297 306 305 307 302 302 302 301 305 305 300 299 297 301 299 293 295 295 295 296
324 322 321 319 318 316 314 313 312 312 310 310 310 308 307 307 307 307 306 307 307 308 308 310 313 307 297 308 306 306 305 303 304 304 302 302 303 299 297 299 297 293 292 286 292 295 296
324 323 321 319 317 314 313 311 311 311 310 310 308 307 306 307 307 307 307 307 307 308 310 314 308 305 298 312 305 307 304 301 303 304 302 304 299 294 295 289 287 289 284 286 290 296 295
324 323 321 319 315 313 311 310 310 309 310 308 306 306 306 306 306 306 307 307 306 308 311 311 309 299 304 301 306 307 305 308 304 302 298 297 292 288 288 285 280 284 284 285 285 290 293
324 323 320 317 314 312 310 310 310 309 307 307 306 306 305 305 305 306 304 300 298 299 304 300 301 299 301 302 304 301 303 302 302 298 291 294 286 283 286 289 290 290 288 287 289 293 291
322 322 319 315 312 310 310 311 308 307 307 307 306 304 304 304 305 305 301 296 296 295 288 301 304 302 301 302 297 301 303 294 296 290 294 291 286 292 294 293 292 290 287 286 289 292 292
320 318 316 312 311 311 311 309 308 307 307 306 303 303 303 304 304 301 297 296 301 301 289 295 298 300 300 303 298 298 298 295 294 291 292 288 292 296 294 293 291 290 287 287 287 291 292
314 312 312 311 310 308 307 307 307 307 305 302 301 302 303 303 298 299 297 299 302 302 286 292 293 299 302 302 298 304 303 297 293 290 291 290 296 294 293 292 292 287 293 292 290 288 283
309 308 308 308 307 307 307 307 306 305 302 301 301 302 302 302 295 295 298 300 301 300 279 292 295 306 304 299 298 299 303 298 291 291 291 289 291 290 290 291 294 289 294 291 290 287 286
307 307 307 307 307 306 305 305 303 302 301 300 301 301 302 299 298 299 301 300 299 287 279 291 297 294 294 295 295 299 298 300 298 293 292 291 295 292 291 294 294 295 293 291 290 286 280
305 306 307 306 305 304 304 303 302 301 300 299 300 301 299 299 295 301 301 296 286 280 292 287 290 292 290 289 291 291 293 291 288 284 285 290 291 294 295 289 293 291 287 279 277 277 277
305 304 304 303 303 302 302 302 301 300 299 299 300 300 299 299 301 301 298 289 280 286 286 291 289 288 285 288 287 288 287 284 288 287 283 281 280 289 295 291 289 288 287 280 275 276 280
303 302 302 301 301 300 299 301 300 299 298 299 300 295 297 300 301 299 290 281 281 285 287 285 286 283 284 287 287 287 286 286 288 291 284 284 284 294 296 296 294 289 285 291 284 285 280
303 302 301 301 301 301 301 301 299 298 299 299 293 295 295 299 300 296 287 284 285 287 287 287 281 285 281 283 283 282 283 288 285 291 290 287 282 292 294 296 294 291 293 281 284 278 277
302 302 301 301 302 301 301 300 299 299 299 299 291 289 296 299 298 291 282 284 285 289 288 284 283 282 282 282 283 282 283 286 288 287 287 287 286 285 290 289 288 288 287 288 288 286 279
300 300 300 300 300 300 299 299 299 299 299 296 291 285 296 298 287 289 284 287 287 287 289 287 287 285 283 284 282 282 282 285 291 289 283 289 286 279 282 289 292 291 290 289 282 282 284
300 300 300 301 300 300 300 299 298 299 299 292 288 287 294 296 282 282 286 286 288 286 287 286 285 287 287 284 280 284 285 290 290 288 285 286 281 276 278 285 290 287 290 289 290 289 284
300 300 300 300 300 300 299 299 298 298 299 293 289 283 287 290 289 286 283 284 283 288 287 288 286 288 285 283 285 282 283 288 291 289 294 290 283 279 274 279 284 282 286 288 287 283 284
299 299 299 300 299 299 298 298 298 298 299 293 290 286 288 281 282 285 286 285 284 283 288 288 285 285 284 279 281 280 284 286 288 291 288 286 278 281 282 283 284 283 284 286 285 286 284
299 299 299 299 299 298 298 297 298 298 299 291 285 285 288 286 287 285 284 283 283 284 284 284 283 285 284 280 282 279 283 283 283 286 285 285 277 281 278 282 283 282 284 286 287 289 290
299 299 299 299 299 298 298 297 298 299 298 291 290 291 288 286 283 282 282 285 284 286 287 287 285 283 282 284 286 285 286 285 285 283 281 280 277 279 275 282 282 278 284 286 289 291 290
301 299 299 299 298 298 298 298 298 299 298 292 291 290 285 280 281 283 286 286 284 285 283 285 286 283 288 290 289 287 287 286 285 284 286 280 279 279 275 279 270 282 291 291 290 290 291
301 300 299 299 298 298 298 298 298 299 299 292 294 290 286 279 285 285 285 284 285 285 283 284 287 289 289 286 281 279 278 281 283 286 287 286 282 278 275 273 280 285 287 286 287 286 290
301 300 300 299 299 300 299 298 299 299 299 294 294 295 288 282 281 287 283 285 279 280 282 287 291 291 288 280 277 275 273 278 278 282 288 286 284 278 279 274 271 283 287 289 289 282 288
299 300 299 299 299 300 299 299 298 299 299 294 292 295 290 282 286 287 282 282 286 283 279 284 285 286 288 275 270 275 275 282 277 279 279 279 280 278 278 274 280 285 286 290 280 280 287
300 300 299 300 299 300 300 299 298 299 299 295 293 295 289 283 287 290 290 284 285 284 277 282 281 282 280 275 278 273 270 278 278 284 282 280 279 279 280 276 275 286 286 281 286 287 286
300 299 299 299 299 299 300 299 299 298 299 297 290 295 294 286 286 291 292 292 290 289 284 284 282 283 281 276 278 278 278 281 281 277 286 280 284 280 280 279 285 286 284 286 287 286 285
Wind_Speed
29 29 28 27 26 24 22 20 18 15 13 12 11 10 10 11 12 14 13 13 16 18 17 17 15 12 8 4 13 6 8 6 5 4 4 9 9 6 10 5 10 15 15 15 14 15 12
31 31 30 29 28 25 24 21 19 16 14 12 11 10 9 10 12 14 15 15 16 17 18 17 13 7 3 8 8 13 11 9 7 7 8 12 8 10 8 11 12 11 12 13 7 9 8
32 32 32 30 29 26 24 21 19 16 15 14 12 10 8 9 12 14 16 16 17 18 18 17 11 7 7 18 7 4 9 7 5 7 11 11 8 6 7 8 7 7 10 11 8 8 13
34 33 32 31 28 25 23 21 19 17 14 13 11 9 7 9 12 15 17 18 18 18 17 14 6 5 10 10 7 15 8 6 9 9 7 9 7 5 4 7 10 8 7 8 5 10 16
31 32 30 29 28 26 22 19 18 15 13 12 9 8 8 9 12 15 17 19 19 18 11 6 5 5 9 6 5 11 9 9 10 9 7 10 5 3 8 5 4 5 9 11 19 14 16
30 30 30 27 26 25 22 18 18 14 12 8 6 8 9 10 12 15 16 22 14 7 5 7 8 2 8 5 4 0 2 4 4 2 6 5 1 4 3 2 6 6 8 8 8 7 14
26 27 28 28 28 27 23 21 18 14 10 9 10 8 9 12 15 13 9 7 1 3 7 11 12 6 7 7 5 4 6 6 4 5 7 7 4 9 9 12 16 16 16 15 12 12 10
23 26 27 29 28 25 23 21 18 15 13 12 8 6 8 12 15 16 5 5 3 3 7 18 21 16 12 2 5 11 8 7 7 8 8 5 10 13 13 16 16 17 13 8 9 9 12
21 26 29 29 26 24 23 19 17 16 13 8 4 5 8 12 14 9 6 3 4 6 2 8 14 17 11 7 6 4 9 5 6 7 10 9 11 16 18 16 11 10 7 8 13 13 14
25 25 23 26 24 20 16 13 11 12 8 4 1 4 9 10 4 4 1 4 3 0 0 5 8 7 6 7 6 8 4 3 5 9 10 10 12 13 12 11 7 12 8 14 14 12 10
26 25 23 21 20 15 13 12 12 10 6 3 2 7 8 6 6 1 3 3 1 2 2 13 9 6 7 7 1 6 5 3 5 9 4 8 9 8 7 8 5 13 9 8 7 13 9
15 18 18 19 19 19 17 15 12 9 4 0 5 9 11 4 3 4 3 4 3 1 5 10 8 8 8 10 8 6 5 2 3 5 9 13 8 7 9 8 4 6 5 7 8 6 9
16 15 17 21 19 17 15 12 9 6 4 6 8 11 9 6 1 4 3 2 2 2 10 5 7 5 3 3 8 3 7 7 4 4 8 14 16 19 15 10 3 4 2 4 4 3 10
20 18 19 16 15 13 11 9 7 5 4 6 9 9 7 6 2 4 1 2 4 7 7 5 7 6 3 5 6 11 4 4 5 7 7 8 14 9 14 17 10 8 9 5 4 3 10
18 17 15 12 11 10 8 7 11 6 5 10 13 3 3 3 3 2 1 2 2 5 5 5 5 5 6 5 3 5 4 5 7 13 6 6 7 13 12 4 10 5 7 15 11 10 9
16 15 13 11 11 12 12 11 10 5 5 6 3 3 3 6 3 0 1 2 5 9 6 6 2 5 4 9 8 9 6 6 11 8 7 6 9 7 10 10 6 8 4 4 3 4 6
14 13 10 8 13 12 10 8 5 3 4 5 2 2 3 4 2 1 2 1 10 7 8 8 7 6 6 6 5 5 4 10 11 12 9 7 1 9 12 3 6 5 6 4 4 5 4
13 12 12 10 10 9 8 6 3 2 7 2 3 1 3 1 2 3 1 5 3 7 3 4 1 1 1 5 3 3 4 5 10 9 6 3 3 6 16 21 18 18 10 5 7 6 5
12 10 10 12 10 9 8 6 2 3 6 2 3 3 3 4 2 1 3 7 6 2 6 2 2 5 6 3 2 3 7 9 7 5 2 5 4 5 10 7 8 8 8 11 15 1 8
11 10 9 10 10 9 7 5 2 3 5 1 2 2 2 1 3 4 5 6 5 4 6 2 3 2 3 3 4 3 5 5 7 6 6 2 3 7 8 14 11 12 20 18 6 4 5
11 10 10 10 10 8 6 3 2 6 8 2 2 2 2 1 2 6 5 2 10 4 2 5 2 3 1 2 5 6 9 11 10 6 6 2 6 8 13 19 19 16 22 17 14 16 5
12 11 10 8 9 7 5 3 4 7 9 2 2 2 4 3 5 6 3 2 1 7 1 4 3 4 5 4 5 7 10 8 4 5 4 3 3 5 10 17 18 21 20 16 13 16 8
14 12 10 9 8 6 4 3 5 8 7 2 3 3 3 2 2 3 4 3 4 7 4 2 4 4 6 6 5 7 8 10 11 12 11 8 3 2 9 13 12 10 13 17 10 7 1
15 14 11 9 7 6 4 3 6 8 8 1 3 2 3 1 2 4 7 7 4 4 2 8 7 4 3 7 7 9 13 17 17 18 15 12 5 3 7 10 6 3 14 8 19 11 13
16 15 12 9 8 7 5 3 6 7 8 1 3 4 3 1 1 8 5 4 5 3 4 5 7 3 5 5 4 7 6 4 10 17 14 17 7 3 3 3 9 5 10 9 1 9 16
15 15 12 11 9 7 6 3 4 6 9 2 3 2 3 3 5 9 6 3 1 3 2 4 6 4 2 3 2 3 3 4 5 8 7 10 13 7 2 3 4 10 17 23 21 7 13
13 11 10 11 9 9 7 4 3 5 7 3 2 5 4 3 5 6 4 2 3 3 1 4 5 6 5 2 1 2 3 7 4 6 4 4 4 9 6 2 3 10 25 25 3 5 10
13 11 10 10 9 9 8 6 4 6 7 5 3 5 4 1 4 7 5 4 4 4 2 5 6 6 5 5 3 3 2 3 4 2 7 3 2 3 4 5 2 21 9 10 6 10 11
13 11 9 11 10 10 10 7 5 4 5 6 2 3 3 3 2 3 6 4 2 3 2 5 2 2 2 3 4 3 3 3 8 3 6 3 5 3 5 4 6 8 10 10 11 10 10
Wind_Direction
223 221 219 215 217 207 202 209 210 211 215 224 236 244 265 279 284 290 295 296 297 296 296 296 300 313 324 234 248 176 173 153 152 144 214 227 245 231 242 241 257 267 269 267 263 252 257
221 220 216 214 212 205 200 206 204 204 205 215 228 241 260 280 289 292 294 296 296 294 293 290 292 295 238 255 241 162 184 174 216 193 225 236 246 239 241 236 241 251 266 268 285 299 300
225 217 215 211 205 203 197 197 202 200 203 216 223 235 258 276 287 293 295 297 296 292 287 287 281 222 245 244 274 253 256 210 230 229 245 260 260 292 299 316 299 300 313 302 288 292 290
228 221 211 210 202 193 191 188 198 201 200 213 222 240 259 278 289 293 296 296 292 287 285 281 245 207 252 261 249 252 282 249 213 238 268 293 313 317 299 303 325 344 307 287 280 267 269
228 220 213 207 193 183 181 186 190 193 200 203 217 247 264 283 289 295 298 297 289 282 263 264 196 227 257 292 218 234 213 229 228 222 231 261 305 261 309 293 313 246 263 261 280 265 268
224 217 211 197 182 173 174 179 189 187 190 187 225 260 278 288 294 298 308 294 273 306 230 198 261 250 257 239 181 81 274 264 277 232 221 213 323 234 271 192 235 237 244 263 266 291 314
224 212 198 180 171 167 170 186 180 173 176 194 217 252 286 296 299 306 337 327 138 200 251 197 186 223 307 307 343 222 221 275 209 290 202 197 170 226 225 219 237 252 262 271 281 285 298
215 215 181 165 160 163 176 172 163 174 189 202 211 242 285 298 302 309 305 242 38 175 297 233 249 249 268 295 287 242 190 208 184 222 244 241 218 234 237 249 244 238 253 274 283 289 288
211 173 159 154 156 170 158 160 174 183 184 181 202 284 303 301 312 302 220 24 59 19 245 284 215 227 235 160 246 142 152 217 228 235 237 233 246 225 235 252 251 269 271 278 267 273 268
126 129 142 139 132 131 141 155 172 159 148 154 254 300 296 307 316 267 212 51 24 348 37 217 195 213 157 203 237 218 142 191 201 246 269 258 248 261 268 238 224 261 244 267 289 298 279
90 102 110 116 119 125 132 139 129 134 143 129 291 275 292 292 310 283 32 359 249 53 250 149 162 128 180 214 163 181 129 155 257 276 250 256 290 302 267 267 295 278 284 291 306 295 309
94 108 119 122 125 123 124 123 128 125 123 224 319 314 313 276 189 284 24 343 30 154 243 169 139 177 196 216 251 133 167 199 257 265 277 267 263 252 246 253 235 322 316 322 287 276 274
75 87 105 108 109 112 116 115 105 95 73 12 316 301 299 304 264 324 339 109 112 183 145 141 151 138 254 308 245 264 191 174 202 170 250 262 255 245 236 250 222 264 12 310 308 227 244
99 95 98 104 107 106 108 125 135 94 23 302 287 302 280 249 338 312 295 179 189 15 55 31 36 13 284 271 270 275 333 345 276 271 285 283 282 279 219 214 192 205 175 188 266 284 301
110 104 102 110 119 121 131 125 87 60 333 311 304 232 246 208 240 352 183 125 48 26 12 17 312 216 238 238 261 57 12 300 60 48 9 339 289 340 323 114 153 237 228 221 253 273 280
125 131 141 150 167 168 158 133 134 176 235 295 291 257 164 191 215 304 123 295 97 51 17 9 39 20 352 25 12 22 345 15 357 61 41 352 302 316 335 330 239 191 229 0 1 293 265
120 121 123 159 143 135 124 125 136 208 282 320 272 222 222 189 153 38 133 31 101 70 33 15 22 20 17 353 24 359 314 339 34 6 13 356 16 309 324 268 263 259 244 244 191 165 243
137 151 147 148 137 127 120 118 142 318 326 275 256 123 227 147 93 215 52 37 321 68 77 69 3 347 334 29 359 341 315 323 34 20 8 4 272 282 280 282 282 287 285 287 228 235 228
155 162 157 151 138 129 119 118 124 21 18 336 251 142 273 80 121 78 134 79 50 120 54 67 73 33 25 353 339 318 11 348 51 26 54 336 317 322 306 298 39 25 327 316 328 67 231
153 146 137 144 139 129 128 125 99 15 9 278 308 80 315 132 261 90 109 133 119 25 61 351 44 56 7 23 334 320 342 313 6 344 147 129 226 230 263 287 308 302 306 303 334 262 298
150 148 145 138 141 136 133 134 50 18 357 3 25 251 176 172 349 89 51 350 121 140 162 231 56 153 250 288 334 309 341 334 329 334 344 131 259 281 275 281 292 278 280 284 303 287 268
153 147 141 148 150 141 130 107 35 8 343 47 102 15 345 72 49 111 38 262 93 130 47 75 102 313 305 317 346 330 334 335 279 323 350 11 280 324 289 304 275 275 276 280 281 273 250
165 155 152 147 152 151 146 112 47 20 5 355 299 278 100 104 141 97 201 144 61 70 325 251 323 38 356 332 357 316 286 271 260 270 269 265 199 299 278 294 282 255 251 249 229 274 26
176 172 165 165 166 171 153 115 58 36 30 330 278 349 59 81 142 193 103 78 66 58 33 350 346 347 18 1 328 292 271 259 253 252 237 234 217 211 279 289 245 203 346 294 101 61 78
182 178 176 176 172 160 156 109 63 36 16 321 309 40 31 16 263 99 85 63 17 343 198 220 268 78 30 353 331 311 298 275 249 247 238 209 196 235 249 265 299 345 6 342 230 62 33
157 174 181 180 176 166 145 105 58 31 7 345 29 359 47 82 348 26 90 116 196 2 26 61 11 347 308 91 36 281 314 283 307 312 232 134 165 189 328 354 311 343 330 316 295 93 37
184 179 175 172 167 155 144 125 71 59 26 22 332 31 55 76 357 45 54 68 27 22 345 60 356 355 55 33 334 267 276 337 309 279 161 137 142 204 213 210 271 356 316 294 136 60 48
168 171 170 163 158 155 142 139 101 69 44 31 321 37 78 47 13 26 9 35 14 45 85 297 38 343 17 22 2 319 350 297 293 303 337 109 204 200 211 201 351 1 352 47 47 57 67
167 163 167 166 159 157 148 144 130 88 56 29 21 18 18 60 259 338 287 279 6 56 83 341 203 52 201 52 15 330 316 292 312 346 9 35 3 52 39 64 47 36 45 34 49 62 70